EW7038 Weather Reports


Display with metric or nautical units.
time (UTC)temp
F
wind
direction
speed
MPH
gust
MPH
rain 1hr
in
rain 24hr
in
rain mn
in
humidity
%
barometer
mb
20260905095818 56 266 4.0 7.0 0.00 0.01 0.00 76 1016.2
20260905094837 56 183 1.0 7.0 0.00 0.01 0.00 75 1016.2
20260905093817 56 254 4.0 11.0 0.00 0.01 0.00 75 1016.3
20260905092816 56 244 7.0 11.0 0.00 0.01 0.00 75 1016.3
20260905091816 56 255 5.0 9.0 0.00 0.01 0.00 76 1016.2
20260905090815 56 244 3.0 9.0 0.00 0.01 0.00 75 1016.1
20260905085817 56 266 4.0 9.0 0.00 0.01 0.00 76 1016.1
20260905084837 56 280 6.0 9.0 0.00 0.01 0.00 75 1016.1
20260905083817 56 241 4.0 7.0 0.00 0.01 0.00 75 1016.1
20260905082816 56 250 4.0 7.0 0.00 0.01 0.00 76 1016.1
20260905081836 56 265 1.0 10.0 0.00 0.01 0.00 77 1015.9
20260905080836 56 272 2.0 6.0 0.00 0.01 0.00 77 1015.9
20260905075815 57 201 2.0 8.0 0.00 0.01 0.00 77 1015.8
20260905074818 57 293 3.0 10.0 0.00 0.01 0.00 77 1015.8
20260905073817 57 269 5.0 10.0 0.00 0.01 0.00 78 1015.7
20260905072837 57 236 2.0 11.0 0.00 0.01 0.00 76 1015.6
20260905071816 57 262 6.0 14.0 0.00 0.01 0.00 75 1015.4
20260905070815 57 253 7.0 14.0 0.00 0.01 0.00 72 1015.2
20260905065835 57 242 8.0 17.0 0.00 0.01 0.01 72 1015.2
20260905064818 57 266 6.0 13.0 0.00 0.01 0.01 76 1015.2
20260905063817 57 283 7.0 14.0 0.00 0.01 0.01 75 1015.1
20260905062817 57 274 5.0 11.0 0.00 0.01 0.01 74 1015.1
20260905061816 58 277 4.0 11.0 0.00 0.01 0.01 73 1015.1
20260905060836 58 263 3.0 9.0 0.00 0.01 0.01 72 1015.3
20260905055836 58 261 5.0 11.0 0.00 0.01 0.01 71 1015.3
20260905054815 58 281 4.0 12.0 0.00 0.01 0.01 70 1015.1
20260905053818 58 270 6.0 11.0 0.00 0.01 0.01 69 1014.9
20260905052817 58 293 3.0 8.0 0.00 0.01 0.01 68 1015.0
20260905051816 58 248 3.0 9.0 0.00 0.01 0.01 68 1015.1
20260905050816 58 292 3.0 12.0 0.00 0.01 0.01 68 1014.9
20260905045835 58 280 7.0 11.0 0.00 0.01 0.01 68 1014.9
20260905044815 58 299 5.0 9.0 0.00 0.01 0.01 68 1014.9
20260905043815 59 270 6.0 12.0 0.00 0.01 0.01 68 1014.8
20260905042817 59 271 6.0 12.0 0.00 0.01 0.01 66 1014.8
20260905041817 59 269 7.0 13.0 0.00 0.01 0.01 64 1014.8
20260905040816 59 242 6.0 15.0 0.00 0.01 0.01 65 1014.7
20260905035816 59 281 6.0 14.0 0.00 0.01 0.01 66 1014.6
20260905034815 59 252 4.0 11.0 0.00 0.01 0.01 67 1014.6
20260905033815 60 275 6.0 10.0 0.00 0.01 0.01 67 1014.5
20260905032818 60 264 6.0 11.0 0.00 0.01 0.01 64 1014.5
20260905031817 60 298 4.0 11.0 0.00 0.01 0.01 64 1014.3
20260905030817 60 351 1.0 9.0 0.00 0.01 0.01 63 1014.2
20260905025816 60 266 4.0 8.0 0.00 0.01 0.01 62 1014.1
20260905024816 60 312 5.0 14.0 0.00 0.01 0.01 62 1014.1
20260905023815 61 270 9.0 19.0 0.00 0.01 0.01 62 1014.0
20260905022814 61 290 5.0 15.0 0.00 0.01 0.01 60 1014.0
20260905021817 61 273 5.0 14.0 0.00 0.01 0.01 60 1014.0
20260905020837 61 283 7.0 17.0 0.00 0.01 0.01 59 1013.9
20260905015837 61 277 8.0 13.0 0.00 0.01 0.01 59 1013.9
20260905014816 62 277 7.0 13.0 0.00 0.01 0.01 60 1013.7
20260905013816 62 294 6.0 14.0 0.00 0.01 0.01 57 1013.7
20260905012815 63 292 6.0 13.0 0.00 0.01 0.01 55 1013.6
20260905011817 63 283 4.0 12.0 0.00 0.01 0.01 56 1013.5
20260905010817 63 302 3.0 14.0 0.00 0.01 0.01 55 1013.4
20260905005817 63 288 7.0 15.0 0.00 0.01 0.01 54 1013.4
20260905004836 62 274 6.0 15.0 0.00 0.01 0.01 54 1013.4
20260905003815 62 272 9.0 17.0 0.00 0.01 0.01 55 1013.3
20260905002815 62 272 7.0 19.0 0.00 0.01 0.01 56 1013.2
20260905001814 62 269 7.0 17.0 0.00 0.01 0.01 57 1013.1
20260905000817 62 279 7.0 23.0 0.00 0.01 0.01 57 1013.0
20260904235817 63 296 6.0 14.0 0.00 0.01 0.01 55 1013.0
20260904234817 63 286 6.0 14.0 0.00 0.01 0.01 58 1013.0
20260904233816 62 277 6.0 13.0 0.00 0.01 0.01 59 1013.0
20260904232835 62 268 6.0 13.0 0.00 0.02 0.01 57 1013.1
20260904231835 62 255 6.0 11.0 0.00 0.02 0.01 61 1013.0
20260904230818 62 268 4.0 9.0 0.00 0.02 0.01 61 1013.0
20260904225818 63 297 2.0 13.0 0.00 0.02 0.01 58 1013.0
20260904224817 64 311 6.0 10.0 0.00 0.02 0.01 54 1012.9
20260904223817 64 271 5.0 9.0 0.00 0.02 0.01 54 1012.9
20260904222816 64 272 5.0 11.0 0.00 0.02 0.01 52 1012.9
20260904221815 64 282 6.0 9.0 0.00 0.02 0.01 51 1012.8
20260904220815 64 314 4.0 11.0 0.00 0.02 0.01 53 1012.7
20260904215818 64 294 3.0 8.0 0.00 0.02 0.01 54 1012.7
20260904214817 64 319 2.0 6.0 0.00 0.02 0.01 50 1012.6
20260904213816 64 308 2.0 7.0 0.00 0.02 0.01 51 1012.6
20260904212836 65 284 5.0 7.0 0.00 0.02 0.01 48 1012.5
20260904211835 66 282 2.0 4.0 0.00 0.02 0.01 44 1012.5
20260904210815 66 268 2.0 3.0 0.00 0.02 0.01 42 1012.5
20260904205815 67 240 1.0 1.0 0.00 0.02 0.01 44 1012.5
20260904204817 66 3 0.0 3.0 0.00 0.02 0.01 42 1012.5
20260904203817 67 358 2.0 4.0 0.00 0.02 0.01 41 1012.5
20260904202857 67 2 2.0 3.0 0.00 0.02 0.01 47 1012.5
20260904201816 65 359 1.0 3.0 0.00 0.02 0.01 51 1012.6
20260904200815 65 335 1.0 3.0 0.00 0.02 0.01 54 1012.6
20260904195835 64 261 1.0 3.0 0.00 0.02 0.01 54 1012.7
20260904194818 64 328 0.0 3.0 0.00 0.02 0.01 54 1012.9
20260904193817 63 341 1.0 3.0 0.00 0.02 0.01 57 1013.0
20260904192817 63 359 1.0 4.0 0.00 0.02 0.01 57 1013.1
20260904191816 62 154 0.0 4.0 0.00 0.02 0.01 55 1013.2
20260904190836 62 352 1.0 4.0 0.00 0.02 0.01 60 1013.2
20260904185817 61 29 2.0 4.0 0.00 0.02 0.01 60 1013.3
20260904184815 60 333 1.0 3.0 0.00 0.02 0.01 62 1013.3
20260904183818 59 317 1.0 4.0 0.00 0.02 0.01 64 1013.4
20260904182817 59 52 3.0 4.0 0.00 0.02 0.01 62 1013.4
20260904181816 59 8 1.0 2.0 0.00 0.02 0.01 63 1013.3
20260904180816 58 155 1.0 2.0 0.00 0.02 0.01 66 1013.2
20260904175815 58 233 0.0 2.0 0.00 0.02 0.01 66 1013.2
20260904174815 58 0 1.0 2.0 0.00 0.02 0.01 68 1013.2
20260904173819 58 58 1.0 2.0 0.00 0.02 0.01 63 1013.3
20260904172837 58 88 1.0 4.0 0.00 0.02 0.01 66 1013.2
20260904171816 57 55 1.0 2.0 0.00 0.02 0.01 69 1013.2
20260904170816 57 65 1.0 2.0 0.00 0.02 0.01 70 1013.2
20260904165816 56 260 1.0 2.0 0.00 0.02 0.01 69 1013.1
20260904164816 56 277 1.0 3.0 0.00 0.02 0.01 72 1013.2
20260904163814 55 246 2.0 3.0 0.00 0.02 0.01 70 1013.1
20260904162817 55 273 2.0 4.0 0.00 0.02 0.01 73 1013.1
20260904161817 55 311 1.0 3.0 0.00 0.02 0.01 70 1013.1
20260904160816 56 354 1.0 2.0 0.00 0.02 0.01 69 1013.2
20260904155816 56 326 1.0 2.0 0.00 0.02 0.01 71 1013.1
20260904154816 55 359 1.0 2.0 0.00 0.02 0.01 72 1013.1
20260904153815 54 90 2.0 2.0 0.00 0.02 0.01 79 1013.1
20260904152818 54 254 0.0 2.0 0.00 0.02 0.01 82 1013.0
20260904151817 53 351 1.0 2.0 0.00 0.02 0.01 82 1013.0
20260904150817 53 254 1.0 2.0 0.00 0.02 0.01 84 1012.9
20260904145817 52 165 1.0 2.0 0.00 0.02 0.01 83 1012.9
20260904144816 52 175 1.0 2.0 0.00 0.02 0.01 84 1012.8
20260904143815 52 171 1.0 2.0 0.00 0.02 0.01 83 1012.7
20260904142815 51 166 1.0 2.0 0.00 0.02 0.01 84 1012.7
20260904141818 51 175 1.0 2.0 0.01 0.02 0.01 83 1012.5
20260904140817 51 149 1.0 3.0 0.01 0.02 0.01 84 1012.4
20260904135816 51 171 1.0 2.0 0.01 0.02 0.01 83 1012.3
20260904134817 51 168 1.0 4.0 0.01 0.02 0.01 83 1012.3
20260904133816 51 179 2.0 2.0 0.01 0.02 0.01 82 1012.1
20260904132815 51 151 2.0 3.0 0.01 0.01 0.01 82 1012.1
20260904131815 51 145 2.0 2.0 0.00 0.01 0.00 82 1012.0
20260904130837 51 147 2.0 2.0 0.00 0.01 0.00 81 1011.9
20260904125817 51 152 2.0 2.0 0.00 0.01 0.00 81 1011.8
20260904124817 51 150 1.0 2.0 0.00 0.01 0.00 81 1011.8
20260904123856 51 173 1.0 3.0 0.00 0.01 0.00 81 1011.8
20260904122816 51 160 2.0 3.0 0.00 0.01 0.00 81 1011.8
20260904121815 51 167 2.0 2.0 0.00 0.01 0.00 80 1011.7
20260904120818 52 156 1.0 2.0 0.00 0.01 0.00 79 1011.5
20260904115837 52 152 1.0 2.0 0.00 0.01 0.00 79 1011.5
20260904114857 52 155 1.0 2.0 0.00 0.01 0.00 79 1011.4
20260904113816 52 159 1.0 2.0 0.00 0.01 0.00 79 1011.4
20260904112816 52 108 1.0 3.0 0.00 0.01 0.00 78 1011.3
20260904111815 52 152 2.0 3.0 0.00 0.01 0.00 77 1011.3
20260904110835 53 158 2.0 3.0 0.00 0.01 0.00 75 1011.1
20260904105817 54 209 2.0 6.0 0.00 0.01 0.00 72 1011.1
20260904104817 54 239 2.0 9.0 0.00 0.01 0.00 72 1010.9
20260904103816 54 230 3.0 10.0 0.00 0.01 0.00 72 1010.8
20260904102816 54 259 6.0 11.0 0.00 0.01 0.00 71 1010.7
20260904101815 54 243 3.0 10.0 0.00 0.01 0.00 71 1010.6
20260904100815 54 262 5.0 12.0 0.00 0.01 0.00 71 1010.6